FW9733 Weather Reports


Display with metric or nautical units.
time (UTC)temp
F
wind
direction
speed
MPH
gust
MPH
rain 1hr
in
rain 24hr
in
rain mn
in
humidity
%
barometer
mb
20260506210107 61 115 3.0 8.0 0.00 0.00 0.00 38 1022.2
20260506204553 61 129 2.0 8.0 0.00 0.00 0.00 38 1022.3
20260506203138 61 75 2.0 9.0 0.00 0.00 0.00 38 1022.2
20260506201549 61 176 1.0 7.0 0.00 0.00 0.00 38 1022.2
20260506200054 61 113 3.0 5.0 0.00 0.00 0.00 38 1022.4
20260506194551 61 56 1.0 8.0 0.00 0.00 0.00 37 1022.5
20260506193048 61 146 2.0 7.0 0.00 0.00 0.00 38 1022.4
20260506191553 61 70 3.0 6.0 0.00 0.00 0.00 38 1022.4
20260506190055 61 295 1.0 6.0 0.00 0.00 0.00 40 1022.4
20260506184558 60 115 1.0 5.0 0.00 0.00 0.00 41 1022.5
20260506183049 60 65 2.0 8.0 0.00 0.00 0.00 41 1022.5
20260506181546 59 139 5.0 11.0 0.00 0.00 0.00 40 1022.4
20260506180051 60 136 2.0 7.0 0.00 0.00 0.00 40 1022.2
20260506174559 58 0 2.0 8.0 0.00 0.00 0.00 41 1022.0
20260506173056 58 141 1.0 5.0 0.00 0.00 0.00 43 1021.8
20260506171557 57 79 2.0 7.0 0.00 0.00 0.00 43 1021.8
20260506170051 58 0 0.0 7.0 0.00 0.00 0.00 43 1021.6
20260506164553 57 285 1.0 5.0 0.00 0.00 0.00 41 1021.5
20260506163109 56 282 2.0 5.0 0.00 0.00 0.00 41 1021.4
20260506161546 56 359 0.0 5.0 0.00 0.00 0.00 42 1021.4
20260506160051 55 0 1.0 3.0 0.00 0.00 0.00 43 1021.1
20260506154554 53 124 1.0 4.0 0.00 0.00 0.00 46 1020.9
20260506153052 50 120 0.0 2.0 0.00 0.00 0.00 51 1020.9
20260506151548 43 0 0.0 1.0 0.00 0.00 0.00 74 1021.1
20260506150048 38 0 0.0 1.0 0.00 0.00 0.00 80 1021.1
20260506144551 33 0 0.0 1.0 0.00 0.00 0.00 85 1021.0
20260506143051 31 0 0.0 1.0 0.00 0.00 0.00 86 1020.9
20260506141548 30 0 0.0 1.0 0.00 0.00 0.00 87 1020.8
20260506140049 29 0 0.0 1.0 0.00 0.00 0.00 88 1020.6
20260506134552 28 0 0.0 0.0 0.00 0.00 0.00 89 1020.4
20260506133047 28 0 0.0 0.0 0.00 0.00 0.00 89 1020.1
20260506131556 27 0 0.0 0.0 0.00 0.00 0.00 89 1019.9
20260506130046 27 0 0.0 0.0 0.00 0.00 0.00 89 1019.9
20260506124546 27 0 0.0 0.0 0.00 0.00 0.00 89 1019.6
20260506123055 27 0 0.0 0.0 0.00 0.00 0.00 89 1019.4
20260506121559 27 0 0.0 0.0 0.00 0.00 0.00 89 1019.2
20260506120048 27 0 0.0 0.0 0.00 0.00 0.00 89 1019.1
20260506114547 27 0 0.0 0.0 0.00 0.00 0.00 89 1018.9
20260506113050 27 0 0.0 0.0 0.00 0.00 0.00 89 1018.9
20260506111552 27 0 0.0 0.0 0.00 0.00 0.00 90 1018.8
20260506110101 27 0 0.0 0.0 0.00 0.00 0.00 89 1018.8
20260506104550 27 0 0.0 0.0 0.00 0.00 0.00 90 1018.8
20260506103051 27 0 0.0 0.0 0.00 0.00 0.00 90 1018.6
20260506101603 27 0 0.0 0.0 0.00 0.00 0.00 90 1018.6
20260506100051 28 0 0.0 0.0 0.00 0.00 0.00 90 1018.6
20260506094556 28 0 0.0 0.0 0.00 0.00 0.00 90 1018.6
20260506093057 28 0 0.0 0.0 0.00 0.00 0.00 90 1018.6
20260506091552 28 0 0.0 0.0 0.00 0.00 0.00 90 1018.6
20260506084611 28 0 0.0 0.0 0.00 0.00 0.00 90 1018.7
20260506083053 28 0 0.0 0.0 0.00 0.00 0.00 90 1018.7
20260506081552 28 0 0.0 0.0 0.00 0.00 0.00 89 1018.6
20260506073047 29 0 0.0 0.0 0.00 0.00 0.00 89 1018.9
20260506071551 29 0 0.0 0.0 0.00 0.00 0.00 87 1018.7
20260506061549 32 0 0.0 0.0 0.00 0.00 0.00 86 1018.3
20260506050105 33 0 0.0 0.0 0.00 0.00 0.00 85 1017.7
20260506044548 33 0 0.0 1.0 0.00 0.00 0.00 84 1017.7
20260506043044 33 0 0.0 0.0 0.00 0.00 0.00 84 1017.5
20260506041559 35 0 0.0 1.0 0.00 0.00 0.00 83 1017.4
20260506040051 37 0 0.0 0.0 0.00 0.00 0.00 87 1017.2
20260506034552 37 0 0.0 1.0 0.00 0.00 0.00 86 1016.9
20260506033051 38 0 0.0 1.0 0.00 0.00 0.00 83 1016.5
20260506031551 39 198 0.0 1.0 0.00 0.00 0.00 83 1016.4
20260506030050 39 212 0.0 2.0 0.00 0.00 0.00 82 1016.3
20260506024550 39 0 0.0 1.0 0.00 0.00 0.00 81 1016.1
20260506023105 39 11 0.0 1.0 0.00 0.00 0.00 84 1016.0
20260506021548 39 0 0.0 1.0 0.00 0.00 0.00 87 1015.8
20260506020052 39 0 0.0 0.0 0.00 0.00 0.00 86 1015.7
20260506014551 40 0 0.0 2.0 0.00 0.00 0.00 85 1015.6
20260506013056 39 44 1.0 7.0 0.00 0.00 0.00 85 1015.4
20260506011549 40 136 2.0 7.0 0.00 0.00 0.00 84 1015.3
20260506010050 41 39 1.0 6.0 0.00 0.00 0.00 81 1015.2
20260506004552 42 75 0.0 5.0 0.00 0.00 0.00 79 1014.9
20260506003045 43 150 0.0 4.0 0.00 0.00 0.00 75 1014.7
20260506001556 43 0 0.0 3.0 0.00 0.00 0.00 74 1014.7
20260506000058 43 0 1.0 5.0 0.00 0.00 0.00 69 1014.5
20260505234550 45 95 2.0 7.0 0.00 0.00 0.00 66 1014.7
20260505233052 46 246 0.0 5.0 0.00 0.00 0.00 66 1014.4
20260505231549 46 309 1.0 4.0 0.00 0.00 0.00 65 1014.6
20260505230111 46 264 1.0 6.0 0.00 0.00 0.00 66 1014.6
20260505224551 46 143 1.0 4.0 0.00 0.00 0.00 63 1014.6
20260505223052 47 170 0.0 4.0 0.00 0.00 0.00 60 1014.7
20260505221555 47 283 0.0 4.0 0.00 0.00 0.00 61 1015.1
20260505220056 46 196 1.0 5.0 0.00 0.00 0.00 60 1015.3
20260505214546 46 231 1.0 4.0 0.00 0.00 0.00 60 1015.3
20260505213052 45 168 1.0 3.0 0.00 0.00 0.00 61 1015.4
20260505211559 45 195 0.0 4.0 0.00 0.00 0.00 60 1015.5